カタログに戻る

ONEWEB-0522

運用中通信PO
NORAD 54140·PAYLOAD·🇬🇧 United Kingdom

打ち上げ Oct 22, 2022 から Satish Dhawan Space Centre

Loading…

次のパス (今後24時間)

TLE

最新Source: CelesTrak SupGP

元期: Sep 15, 2026, 03:27 UTC

1 54140C 22138AD  26258.14391620 -.00002581  00000+0 -64536-2 0  2580
2 54140  87.9121 287.0435 0002067  90.2213 302.6559 13.19732213    18

AllMySatでONEWEB-0522をリアルタイム追跡

Download on the App Store